Year,Month,Day,Hour,Minute,Value (Times are PST for windspeed in km/hr)
2013,09,28,00,00,1.80
2013,09,28,00,01,2.60
2013,09,28,00,02,3.60
2013,09,28,00,03,4.60
2013,09,28,00,04,1.70
2013,09,28,00,05,2.30
2013,09,28,00,06,4.80
2013,09,28,00,07,2.80
2013,09,28,00,08,3.40
2013,09,28,00,09,5.70
2013,09,28,00,10,5.70
2013,09,28,00,11,5.60
2013,09,28,00,12,4.10
2013,09,28,00,13,3.00
2013,09,28,00,14,3.00
2013,09,28,00,15,2.30
2013,09,28,00,16,5.30
2013,09,28,00,17,2.10
2013,09,28,00,18,2.10
2013,09,28,00,19,4.70
2013,09,28,00,20,2.00
2013,09,28,00,21,3.00
2013,09,28,00,22,3.30
2013,09,28,00,23,3.80
2013,09,28,00,24,0.90
2013,09,28,00,25,2.70
2013,09,28,00,26,2.80
2013,09,28,00,27,3.50
2013,09,28,00,28,3.00
2013,09,28,00,29,3.30
2013,09,28,00,30,1.10
2013,09,28,00,31,0.30
2013,09,28,00,32,1.80
2013,09,28,00,33,0.20
2013,09,28,00,34,0.70
2013,09,28,00,35,1.40
2013,09,28,00,36,1.10
2013,09,28,00,37,1.70
2013,09,28,00,38,1.50
2013,09,28,00,39,0.40
2013,09,28,00,40,0.50
2013,09,28,00,41,0.20
2013,09,28,00,42,0.10
2013,09,28,00,43,0.80
2013,09,28,00,44,0.40
2013,09,28,00,45,0.40
2013,09,28,00,46,0.30
2013,09,28,00,47,4.70
2013,09,28,00,48,2.20
2013,09,28,00,49,1.60
2013,09,28,00,50,2.30
2013,09,28,00,51,1.70
2013,09,28,00,52,2.00
2013,09,28,00,53,3.90
2013,09,28,00,54,1.80
2013,09,28,00,55,0.50
2013,09,28,00,56,2.20
2013,09,28,00,57,1.50
2013,09,28,00,58,2.70
2013,09,28,00,59,3.30
2013,09,28,01,00,2.20
2013,09,28,01,01,1.10
2013,09,28,01,02,2.10
2013,09,28,01,03,2.20
2013,09,28,01,04,3.60
2013,09,28,01,05,2.50
2013,09,28,01,06,4.30
2013,09,28,01,07,2.50
2013,09,28,01,08,0.50
2013,09,28,01,09,0.90
2013,09,28,01,10,3.30
2013,09,28,01,11,0.80
2013,09,28,01,12,2.30
2013,09,28,01,13,0.30
2013,09,28,01,14,2.10
2013,09,28,01,15,0.70
2013,09,28,01,16,1.70
2013,09,28,01,17,1.30
2013,09,28,01,18,0.80
2013,09,28,01,19,0.20
2013,09,28,01,20,0.00
2013,09,28,01,21,2.90
2013,09,28,01,22,1.90
2013,09,28,01,23,1.10
2013,09,28,01,24,0.00
2013,09,28,01,25,0.00
2013,09,28,01,26,0.40
2013,09,28,01,27,0.60
2013,09,28,01,28,0.20
2013,09,28,01,29,0.50
2013,09,28,01,30,1.90
2013,09,28,01,31,2.20
2013,09,28,01,32,0.00
2013,09,28,01,33,1.10
2013,09,28,01,34,0.20
2013,09,28,01,35,0.30
2013,09,28,01,36,0.60
2013,09,28,01,37,0.80
2013,09,28,01,38,0.10
2013,09,28,01,39,0.00
2013,09,28,01,40,0.20
2013,09,28,01,41,1.10
2013,09,28,01,42,0.10
2013,09,28,01,43,1.40
2013,09,28,01,44,0.20
2013,09,28,01,45,0.00
2013,09,28,01,46,1.50
2013,09,28,01,47,0.70
2013,09,28,01,48,1.60
2013,09,28,01,49,2.50
2013,09,28,01,50,2.30
2013,09,28,01,51,1.20
2013,09,28,01,52,2.10
2013,09,28,01,53,2.30
2013,09,28,01,54,0.00
2013,09,28,01,55,1.40
2013,09,28,01,56,2.30
2013,09,28,01,57,1.50
2013,09,28,01,58,0.90
2013,09,28,01,59,0.00
2013,09,28,02,00,0.10
2013,09,28,02,01,0.60
2013,09,28,02,02,1.00
2013,09,28,02,03,2.10
2013,09,28,02,04,1.40
2013,09,28,02,05,0.30
2013,09,28,02,06,0.60
2013,09,28,02,07,2.40
2013,09,28,02,08,1.00
2013,09,28,02,09,0.00
2013,09,28,02,10,0.10
2013,09,28,02,11,1.10
2013,09,28,02,12,0.50
2013,09,28,02,13,0.00
2013,09,28,02,14,0.40
2013,09,28,02,15,1.30
2013,09,28,02,16,0.30
2013,09,28,02,17,0.00
2013,09,28,02,18,0.00
2013,09,28,02,19,0.40
2013,09,28,02,20,0.90
2013,09,28,02,21,0.60
2013,09,28,02,22,1.20
2013,09,28,02,23,0.40
2013,09,28,02,24,0.50
2013,09,28,02,25,0.00
2013,09,28,02,26,0.00
2013,09,28,02,27,0.00
2013,09,28,02,28,0.00
2013,09,28,02,29,0.00
2013,09,28,02,30,1.00
2013,09,28,02,31,1.20
2013,09,28,02,32,1.30
2013,09,28,02,33,0.40
2013,09,28,02,34,0.50
2013,09,28,02,35,0.20
2013,09,28,02,36,0.20
2013,09,28,02,37,1.50
2013,09,28,02,38,1.10
2013,09,28,02,39,1.60
2013,09,28,02,40,1.40
2013,09,28,02,41,0.70
2013,09,28,02,42,0.00
2013,09,28,02,43,0.00
2013,09,28,02,44,0.00
2013,09,28,02,45,0.00
2013,09,28,02,46,0.00
2013,09,28,02,47,0.00
2013,09,28,02,48,0.00
2013,09,28,02,49,0.00
2013,09,28,02,50,0.00
2013,09,28,02,51,0.00
2013,09,28,02,52,0.00
2013,09,28,02,53,0.30
2013,09,28,02,54,0.40
2013,09,28,02,55,1.10
2013,09,28,02,56,1.40
2013,09,28,02,57,2.10
2013,09,28,02,58,1.70
2013,09,28,02,59,0.80
2013,09,28,03,00,0.70
2013,09,28,03,01,0.40
2013,09,28,03,02,0.00
2013,09,28,03,03,0.60
2013,09,28,03,04,0.10
2013,09,28,03,05,0.40
2013,09,28,03,06,0.00
2013,09,28,03,07,1.40
2013,09,28,03,08,2.90
2013,09,28,03,09,2.00
2013,09,28,03,10,0.90
2013,09,28,03,11,1.30
2013,09,28,03,12,1.20
2013,09,28,03,13,1.00
2013,09,28,03,14,3.00
2013,09,28,03,15,2.30
2013,09,28,03,16,2.00
2013,09,28,03,17,0.60
2013,09,28,03,18,0.60
2013,09,28,03,19,0.30
2013,09,28,03,20,0.70
2013,09,28,03,21,0.90
2013,09,28,03,22,2.00
2013,09,28,03,23,1.30
2013,09,28,03,24,2.70
2013,09,28,03,25,4.10
2013,09,28,03,26,5.40
2013,09,28,03,27,3.30
2013,09,28,03,28,5.10
2013,09,28,03,29,4.90
2013,09,28,03,30,3.80
2013,09,28,03,31,3.90
2013,09,28,03,32,2.90
2013,09,28,03,33,3.70
2013,09,28,03,34,3.70
2013,09,28,03,35,4.50
2013,09,28,03,36,3.80
2013,09,28,03,37,2.60
2013,09,28,03,38,2.80
2013,09,28,03,39,3.30
2013,09,28,03,40,4.40
2013,09,28,03,41,1.10
2013,09,28,03,42,1.50
2013,09,28,03,43,2.80
2013,09,28,03,44,3.40
2013,09,28,03,45,3.10
2013,09,28,03,46,2.30
2013,09,28,03,47,2.70
2013,09,28,03,48,3.30
2013,09,28,03,49,4.00
2013,09,28,03,50,3.30
2013,09,28,03,51,2.30
2013,09,28,03,52,3.50
2013,09,28,03,53,2.50
2013,09,28,03,54,3.60
2013,09,28,03,55,5.60
2013,09,28,03,56,4.10
2013,09,28,03,57,3.60
2013,09,28,03,58,1.40
2013,09,28,03,59,1.10
2013,09,28,04,00,2.50
2013,09,28,04,01,2.70
2013,09,28,04,02,3.50
2013,09,28,04,03,3.10
2013,09,28,04,04,3.80
2013,09,28,04,05,3.00
2013,09,28,04,06,3.80
2013,09,28,04,07,4.60
2013,09,28,04,08,2.30
2013,09,28,04,09,2.20
2013,09,28,04,10,2.60
2013,09,28,04,11,0.40
2013,09,28,04,12,0.60
2013,09,28,04,13,0.10
2013,09,28,04,14,2.30
2013,09,28,04,15,1.50
2013,09,28,04,16,0.50
2013,09,28,04,17,0.00
2013,09,28,04,18,0.20
2013,09,28,04,19,1.40
2013,09,28,04,20,1.60
2013,09,28,04,21,2.00
2013,09,28,04,22,1.80
2013,09,28,04,23,1.00
2013,09,28,04,24,1.60
2013,09,28,04,25,3.00
2013,09,28,04,26,1.00
2013,09,28,04,27,1.10
2013,09,28,04,28,1.00
2013,09,28,04,29,0.50
2013,09,28,04,30,0.20
2013,09,28,04,31,0.00
2013,09,28,04,32,0.00
2013,09,28,04,33,1.10
2013,09,28,04,34,1.50
2013,09,28,04,35,1.90
2013,09,28,04,36,1.80
2013,09,28,04,37,1.40
2013,09,28,04,38,1.00
2013,09,28,04,39,0.00
2013,09,28,04,40,0.00
2013,09,28,04,41,0.10
2013,09,28,04,42,1.40
2013,09,28,04,43,1.70
2013,09,28,04,44,2.20
2013,09,28,04,45,1.30
2013,09,28,04,46,0.50
2013,09,28,04,47,0.20
2013,09,28,04,48,0.60
2013,09,28,04,49,1.10
2013,09,28,04,50,0.00
2013,09,28,04,51,1.60
2013,09,28,04,52,0.70
2013,09,28,04,53,0.10
2013,09,28,04,54,0.20
2013,09,28,04,55,0.90
2013,09,28,04,56,0.00
2013,09,28,04,57,0.00
2013,09,28,04,58,0.10
2013,09,28,04,59,0.30
2013,09,28,05,00,0.10
2013,09,28,05,01,0.40
2013,09,28,05,02,0.20
2013,09,28,05,03,0.80
2013,09,28,05,04,0.20
2013,09,28,05,05,0.20
2013,09,28,05,06,0.00
2013,09,28,05,07,0.00
2013,09,28,05,08,0.20
2013,09,28,05,09,0.10
2013,09,28,05,10,0.00
2013,09,28,05,11,0.00
2013,09,28,05,12,0.40
2013,09,28,05,13,0.30
2013,09,28,05,14,0.80
2013,09,28,05,15,1.30
2013,09,28,05,16,0.10
2013,09,28,05,17,0.80
2013,09,28,05,18,0.30
2013,09,28,05,19,1.20
2013,09,28,05,20,0.00
2013,09,28,05,21,0.20
2013,09,28,05,22,0.20
2013,09,28,05,23,0.10
2013,09,28,05,24,0.20
2013,09,28,05,25,0.10
2013,09,28,05,26,1.10
2013,09,28,05,27,2.10
2013,09,28,05,28,2.80
2013,09,28,05,29,5.10
2013,09,28,05,30,4.00
2013,09,28,05,31,4.60
2013,09,28,05,32,5.30
2013,09,28,05,33,4.70
2013,09,28,05,34,7.30
2013,09,28,05,35,6.90
2013,09,28,05,36,8.40
2013,09,28,05,37,4.80
2013,09,28,05,38,12.60
2013,09,28,05,39,8.20
2013,09,28,05,40,7.30
2013,09,28,05,41,9.40
2013,09,28,05,42,6.70
2013,09,28,05,43,7.80
2013,09,28,05,44,7.50
2013,09,28,05,45,8.50
2013,09,28,05,46,9.60
2013,09,28,05,47,9.00
2013,09,28,05,48,8.10
2013,09,28,05,49,10.50
2013,09,28,05,50,8.50
2013,09,28,05,51,9.90
2013,09,28,05,52,9.10
2013,09,28,05,53,8.70
2013,09,28,05,54,8.50
2013,09,28,05,55,7.10
2013,09,28,05,56,8.30
2013,09,28,05,57,7.10
2013,09,28,05,58,6.40
2013,09,28,05,59,6.00
2013,09,28,06,00,4.70
2013,09,28,06,01,6.80
2013,09,28,06,02,6.60
2013,09,28,06,03,10.50
2013,09,28,06,04,5.30
2013,09,28,06,05,3.50
2013,09,28,06,06,6.00
2013,09,28,06,07,8.60
2013,09,28,06,08,10.50
2013,09,28,06,09,9.20
2013,09,28,06,10,16.10
2013,09,28,06,11,11.80
2013,09,28,06,12,10.50
2013,09,28,06,13,8.00
2013,09,28,06,14,14.80
2013,09,28,06,15,9.10
2013,09,28,06,16,13.80
2013,09,28,06,17,10.30
2013,09,28,06,18,12.10
2013,09,28,06,19,14.50
2013,09,28,06,20,15.70
2013,09,28,06,21,12.50
2013,09,28,06,22,14.10
2013,09,28,06,23,15.60
2013,09,28,06,24,11.80
2013,09,28,06,25,10.90
2013,09,28,06,26,13.80
2013,09,28,06,27,16.30
2013,09,28,06,28,16.70
2013,09,28,06,29,12.20
2013,09,28,06,30,11.60
2013,09,28,06,31,9.10
2013,09,28,06,32,13.30
2013,09,28,06,33,15.00
2013,09,28,06,34,10.80
2013,09,28,06,35,12.60
2013,09,28,06,36,14.40
2013,09,28,06,37,15.30
2013,09,28,06,38,12.90
2013,09,28,06,39,13.00
2013,09,28,06,40,11.60
2013,09,28,06,41,11.50
2013,09,28,06,42,13.40
2013,09,28,06,43,16.30
2013,09,28,06,44,13.10
2013,09,28,06,45,15.30
2013,09,28,06,46,13.90
2013,09,28,06,47,14.50
2013,09,28,06,48,10.20
2013,09,28,06,49,13.60
2013,09,28,06,50,13.50
2013,09,28,06,51,13.60
2013,09,28,06,52,10.80
2013,09,28,06,53,15.50
2013,09,28,06,54,18.30
2013,09,28,06,55,14.50
2013,09,28,06,56,10.60
2013,09,28,06,57,14.00
2013,09,28,06,58,11.20
2013,09,28,06,59,14.20
2013,09,28,07,00,12.10
2013,09,28,07,01,14.60
2013,09,28,07,02,16.60
2013,09,28,07,03,17.20
2013,09,28,07,04,12.10
2013,09,28,07,05,17.20
2013,09,28,07,06,16.40
2013,09,28,07,07,17.50
2013,09,28,07,08,16.70
2013,09,28,07,09,15.50
2013,09,28,07,10,15.90
2013,09,28,07,11,15.50
2013,09,28,07,12,15.80
2013,09,28,07,13,15.70
2013,09,28,07,14,13.00
2013,09,28,07,15,12.80
2013,09,28,07,16,13.40
2013,09,28,07,17,12.30
2013,09,28,07,18,15.10
2013,09,28,07,19,22.40
2013,09,28,07,20,15.90
2013,09,28,07,21,13.50
2013,09,28,07,22,16.80
2013,09,28,07,23,13.10
2013,09,28,07,24,21.20
2013,09,28,07,25,16.20
2013,09,28,07,26,19.60
2013,09,28,07,27,17.20
2013,09,28,07,28,15.30
2013,09,28,07,29,12.20
2013,09,28,07,30,17.40
2013,09,28,07,31,12.80
2013,09,28,07,32,20.70
2013,09,28,07,33,19.50
2013,09,28,07,34,22.50
2013,09,28,07,35,16.90
2013,09,28,07,36,18.80
2013,09,28,07,37,18.00
2013,09,28,07,38,14.10
2013,09,28,07,39,15.70
2013,09,28,07,40,17.20
2013,09,28,07,41,21.80
2013,09,28,07,42,15.80
2013,09,28,07,43,18.40
2013,09,28,07,44,17.70
2013,09,28,07,45,22.60
2013,09,28,07,46,21.90
2013,09,28,07,47,20.60
2013,09,28,07,48,17.50
2013,09,28,07,49,17.10
2013,09,28,07,50,19.40
2013,09,28,07,51,12.80
2013,09,28,07,52,21.50
2013,09,28,07,53,22.10
2013,09,28,07,54,15.50
2013,09,28,07,55,20.70
2013,09,28,07,56,16.20
2013,09,28,07,57,18.10
2013,09,28,07,58,17.90
2013,09,28,07,59,21.20
2013,09,28,08,00,25.70
2013,09,28,08,01,17.30
2013,09,28,08,02,17.60
2013,09,28,08,03,21.20
2013,09,28,08,04,19.00
2013,09,28,08,05,21.40
2013,09,28,08,06,20.10
2013,09,28,08,07,12.10
2013,09,28,08,08,12.90
2013,09,28,08,09,18.70
2013,09,28,08,10,12.90
2013,09,28,08,11,14.70
2013,09,28,08,12,14.10
2013,09,28,08,13,16.10
2013,09,28,08,14,11.80
2013,09,28,08,15,13.60
2013,09,28,08,16,14.40
2013,09,28,08,17,16.10
2013,09,28,08,18,18.10
2013,09,28,08,19,10.20
2013,09,28,08,20,12.90
2013,09,28,08,21,8.60
2013,09,28,08,22,7.30
2013,09,28,08,23,15.60
2013,09,28,08,24,12.60
2013,09,28,08,25,14.60
2013,09,28,08,26,7.60
2013,09,28,08,27,11.00
2013,09,28,08,28,5.10
2013,09,28,08,29,7.20
2013,09,28,08,30,5.50
2013,09,28,08,31,6.80
2013,09,28,08,32,12.40
2013,09,28,08,33,8.90
2013,09,28,08,34,10.80
2013,09,28,08,35,6.30
2013,09,28,08,36,8.50
2013,09,28,08,37,10.50
2013,09,28,08,38,5.30
2013,09,28,08,39,9.90
2013,09,28,08,40,9.50
2013,09,28,08,41,7.60
2013,09,28,08,42,10.50
2013,09,28,08,43,8.00
2013,09,28,08,44,9.50
2013,09,28,08,45,11.90
2013,09,28,08,46,14.20
2013,09,28,08,47,14.70
2013,09,28,08,48,14.60
2013,09,28,08,49,13.50
2013,09,28,08,50,14.40
2013,09,28,08,51,16.40
2013,09,28,08,52,10.10
2013,09,28,08,53,16.30
2013,09,28,08,54,7.60
2013,09,28,08,55,12.50
2013,09,28,08,56,16.20
2013,09,28,08,57,18.30
2013,09,28,08,58,9.50
2013,09,28,08,59,10.80
2013,09,28,09,00,13.90
2013,09,28,09,01,5.80
2013,09,28,09,02,8.00
2013,09,28,09,03,7.40
2013,09,28,09,04,13.50
2013,09,28,09,05,8.20
2013,09,28,09,06,8.80
2013,09,28,09,07,7.00
2013,09,28,09,08,9.80
2013,09,28,09,09,7.10
2013,09,28,09,10,4.10
2013,09,28,09,11,6.00
2013,09,28,09,12,3.30
2013,09,28,09,13,4.00
2013,09,28,09,14,7.90
2013,09,28,09,15,8.30
2013,09,28,09,16,5.50
2013,09,28,09,17,4.70
2013,09,28,09,18,3.50
2013,09,28,09,19,4.70
2013,09,28,09,20,4.50
2013,09,28,09,21,4.20
2013,09,28,09,22,4.30
2013,09,28,09,23,4.30
2013,09,28,09,24,3.00
2013,09,28,09,25,1.90
2013,09,28,09,26,0.70
2013,09,28,09,27,2.60
2013,09,28,09,28,3.70
2013,09,28,09,29,4.10
2013,09,28,09,30,2.70
2013,09,28,09,31,5.50
2013,09,28,09,32,3.90
2013,09,28,09,33,3.60
2013,09,28,09,34,2.90
2013,09,28,09,35,2.60
2013,09,28,09,36,3.80
2013,09,28,09,37,2.20
2013,09,28,09,38,5.40
2013,09,28,09,39,2.30
2013,09,28,09,40,6.10
2013,09,28,09,41,7.50
2013,09,28,09,42,5.80
2013,09,28,09,43,3.10
2013,09,28,09,44,5.30
2013,09,28,09,45,3.80
2013,09,28,09,46,5.10
2013,09,28,09,47,6.10
2013,09,28,09,48,4.50
2013,09,28,09,49,4.90
2013,09,28,09,50,4.80
2013,09,28,09,51,5.00
2013,09,28,09,52,5.80
2013,09,28,09,53,7.60
2013,09,28,09,54,5.10
2013,09,28,09,55,4.10
2013,09,28,09,56,5.10
2013,09,28,09,57,4.30
2013,09,28,09,58,2.40
2013,09,28,09,59,4.70
2013,09,28,10,00,5.20
2013,09,28,10,01,6.00
2013,09,28,10,02,4.20
2013,09,28,10,03,1.70
2013,09,28,10,04,2.40
2013,09,28,10,05,6.00
2013,09,28,10,06,4.40
2013,09,28,10,07,4.10
2013,09,28,10,08,2.00
2013,09,28,10,09,4.70
2013,09,28,10,10,3.30
2013,09,28,10,11,3.60
2013,09,28,10,12,1.80
2013,09,28,10,13,1.30
2013,09,28,10,14,3.20
2013,09,28,10,15,7.10
2013,09,28,10,16,5.90
2013,09,28,10,17,6.00
2013,09,28,10,18,5.00
2013,09,28,10,19,3.90
2013,09,28,10,20,3.10
2013,09,28,10,21,3.00
2013,09,28,10,22,2.70
2013,09,28,10,23,4.90
2013,09,28,10,24,6.70
2013,09,28,10,25,5.30
2013,09,28,10,26,2.60
2013,09,28,10,27,4.00
2013,09,28,10,28,5.60
2013,09,28,10,29,4.90
2013,09,28,10,30,5.80
2013,09,28,10,31,7.20
2013,09,28,10,32,2.70
2013,09,28,10,33,6.80
2013,09,28,10,34,5.20
2013,09,28,10,35,4.30
2013,09,28,10,36,5.80
2013,09,28,10,37,5.40
2013,09,28,10,38,5.10
2013,09,28,10,39,5.00
2013,09,28,10,40,3.60
2013,09,28,10,41,2.80
2013,09,28,10,42,3.70
2013,09,28,10,43,5.00
2013,09,28,10,44,7.10
2013,09,28,10,45,7.00
2013,09,28,10,46,7.10
2013,09,28,10,47,8.70
2013,09,28,10,48,6.40
2013,09,28,10,49,6.70
2013,09,28,10,50,5.10
2013,09,28,10,51,6.90
2013,09,28,10,52,7.70
2013,09,28,10,53,7.40
2013,09,28,10,54,4.50
2013,09,28,10,55,3.40
2013,09,28,10,56,3.10
2013,09,28,10,57,5.10
2013,09,28,10,58,7.90
2013,09,28,10,59,6.40
2013,09,28,11,00,4.10
2013,09,28,11,01,6.80
2013,09,28,11,02,6.00
2013,09,28,11,03,3.90
2013,09,28,11,04,3.30
2013,09,28,11,05,2.30
2013,09,28,11,06,2.40
2013,09,28,11,07,2.50
2013,09,28,11,08,5.30
2013,09,28,11,09,7.70
2013,09,28,11,10,8.10
2013,09,28,11,11,2.80
2013,09,28,11,12,3.70
2013,09,28,11,13,3.70
2013,09,28,11,14,5.60
2013,09,28,11,15,4.70
2013,09,28,11,16,4.30
2013,09,28,11,17,8.70
2013,09,28,11,18,9.20
2013,09,28,11,19,4.90
2013,09,28,11,20,5.40
2013,09,28,11,21,5.80
2013,09,28,11,22,3.50
2013,09,28,11,23,4.80
2013,09,28,11,24,3.90
2013,09,28,11,25,6.80
2013,09,28,11,26,9.90
2013,09,28,11,27,6.40
2013,09,28,11,28,9.60
2013,09,28,11,29,6.40
2013,09,28,11,30,7.10
2013,09,28,11,31,7.00
2013,09,28,11,32,6.50
2013,09,28,11,33,4.40
2013,09,28,11,34,5.20
2013,09,28,11,35,4.10
2013,09,28,11,36,4.20
2013,09,28,11,37,9.80
2013,09,28,11,38,7.90
2013,09,28,11,39,9.70
2013,09,28,11,40,11.10
2013,09,28,11,41,10.20
2013,09,28,11,42,6.20
2013,09,28,11,43,6.80
2013,09,28,11,44,8.10
2013,09,28,11,45,9.90
2013,09,28,11,46,8.00
2013,09,28,11,47,8.00
2013,09,28,11,48,11.10
2013,09,28,11,49,10.80
2013,09,28,11,50,13.70
2013,09,28,11,51,10.30
2013,09,28,11,52,12.10
2013,09,28,11,53,8.50
2013,09,28,11,54,8.60
2013,09,28,11,55,10.80
2013,09,28,11,56,9.50
2013,09,28,11,57,7.50
2013,09,28,11,58,7.30
2013,09,28,11,59,8.70
2013,09,28,12,00,8.50
2013,09,28,12,01,7.00
2013,09,28,12,02,6.10
2013,09,28,12,03,4.20
2013,09,28,12,04,2.50
2013,09,28,12,05,3.20
2013,09,28,12,06,4.60
2013,09,28,12,07,6.60
2013,09,28,12,08,4.70
2013,09,28,12,09,4.30
2013,09,28,12,10,3.30
2013,09,28,12,11,4.90
2013,09,28,12,12,4.40
2013,09,28,12,13,2.80
2013,09,28,12,14,4.30
2013,09,28,12,15,5.10
2013,09,28,12,16,5.60
2013,09,28,12,17,2.40
2013,09,28,12,18,4.50
2013,09,28,12,19,3.50
2013,09,28,12,20,4.90
2013,09,28,12,21,7.80
2013,09,28,12,22,3.60
2013,09,28,12,23,4.80
2013,09,28,12,24,4.50
2013,09,28,12,25,6.40
2013,09,28,12,26,5.80
2013,09,28,12,27,4.50
2013,09,28,12,28,4.60
2013,09,28,12,29,3.40
2013,09,28,12,30,1.40
2013,09,28,12,31,0.40
2013,09,28,12,32,1.40
2013,09,28,12,33,1.30
2013,09,28,12,34,2.70
2013,09,28,12,35,2.40
2013,09,28,12,36,2.00
2013,09,28,12,37,1.50
2013,09,28,12,38,1.90
2013,09,28,12,39,2.30
2013,09,28,12,40,3.00
2013,09,28,12,41,1.50
2013,09,28,12,42,0.90
2013,09,28,12,43,0.70
2013,09,28,12,44,1.90
2013,09,28,12,45,1.10
2013,09,28,12,46,0.40
2013,09,28,12,47,0.00
2013,09,28,12,48,0.00
2013,09,28,12,49,0.30
2013,09,28,12,50,0.20
2013,09,28,12,51,0.30
2013,09,28,12,52,2.30
2013,09,28,12,53,4.30
2013,09,28,12,54,5.40
2013,09,28,12,55,2.70
2013,09,28,12,56,5.20
2013,09,28,12,57,4.70
2013,09,28,12,58,3.60
2013,09,28,12,59,1.90
2013,09,28,13,00,2.40
2013,09,28,13,01,3.70
2013,09,28,13,02,3.90
2013,09,28,13,03,3.60
2013,09,28,13,04,5.30
2013,09,28,13,05,1.90
2013,09,28,13,06,2.10
2013,09,28,13,07,2.50
2013,09,28,13,08,2.50
2013,09,28,13,09,2.60
2013,09,28,13,10,2.30
2013,09,28,13,11,1.00
2013,09,28,13,12,1.00
2013,09,28,13,13,2.20
2013,09,28,13,14,2.50
2013,09,28,13,15,3.90
2013,09,28,13,16,5.60
2013,09,28,13,17,7.00
2013,09,28,13,18,9.00
2013,09,28,13,19,9.70
2013,09,28,13,20,8.10
2013,09,28,13,21,8.30
2013,09,28,13,22,8.30
2013,09,28,13,23,9.30
2013,09,28,13,24,6.20
2013,09,28,13,25,5.50
2013,09,28,13,26,6.40
2013,09,28,13,27,4.50
2013,09,28,13,28,5.60
2013,09,28,13,29,5.70
2013,09,28,13,30,4.70
2013,09,28,13,31,3.90
2013,09,28,13,32,5.10
2013,09,28,13,33,5.30
2013,09,28,13,34,5.30
2013,09,28,13,35,4.70
2013,09,28,13,36,7.00
2013,09,28,13,37,5.20
2013,09,28,13,38,5.70
2013,09,28,13,39,8.10
2013,09,28,13,40,7.20
2013,09,28,13,41,6.40
2013,09,28,13,42,5.90
2013,09,28,13,43,6.10
2013,09,28,13,44,5.60
2013,09,28,13,45,7.40
2013,09,28,13,46,7.00
2013,09,28,13,47,6.80
2013,09,28,13,48,10.80
2013,09,28,13,49,7.20
2013,09,28,13,50,3.80
2013,09,28,13,51,3.00
2013,09,28,13,52,1.50
2013,09,28,13,53,3.00
2013,09,28,13,54,0.60
2013,09,28,13,55,4.30
2013,09,28,13,56,5.20
2013,09,28,13,57,1.80
2013,09,28,13,58,2.70
2013,09,28,13,59,5.70
2013,09,28,14,00,4.80
2013,09,28,14,01,2.50
2013,09,28,14,02,1.90
2013,09,28,14,03,1.60
2013,09,28,14,04,2.30
2013,09,28,14,05,1.70
2013,09,28,14,06,1.70
2013,09,28,14,07,2.30
2013,09,28,14,08,2.00
2013,09,28,14,09,2.70
2013,09,28,14,10,1.80
2013,09,28,14,11,1.80
2013,09,28,14,12,0.70
2013,09,28,14,13,0.60
2013,09,28,14,14,0.10
2013,09,28,14,15,0.40
2013,09,28,14,16,2.70
2013,09,28,14,17,4.10
2013,09,28,14,18,4.80
2013,09,28,14,19,4.40
2013,09,28,14,20,4.40
2013,09,28,14,21,3.60
2013,09,28,14,22,1.80
2013,09,28,14,23,4.10
2013,09,28,14,24,3.30
2013,09,28,14,25,5.00
2013,09,28,14,26,4.20
2013,09,28,14,27,5.70
2013,09,28,14,28,7.20
2013,09,28,14,29,7.70
2013,09,28,14,30,4.00
2013,09,28,14,31,3.50
2013,09,28,14,32,8.10
2013,09,28,14,33,5.50
2013,09,28,14,34,5.60
2013,09,28,14,35,11.70
2013,09,28,14,36,6.40
2013,09,28,14,37,3.20
2013,09,28,14,38,6.50
2013,09,28,14,39,7.70
2013,09,28,14,40,11.20
2013,09,28,14,41,9.60
2013,09,28,14,42,3.20
2013,09,28,14,43,8.80
2013,09,28,14,44,8.90
2013,09,28,14,45,8.60
2013,09,28,14,46,8.10
2013,09,28,14,47,4.30
2013,09,28,14,48,9.70
2013,09,28,14,49,9.00
2013,09,28,14,50,8.30
2013,09,28,14,51,7.60
2013,09,28,14,52,6.00
2013,09,28,14,53,7.90
2013,09,28,14,54,7.10
2013,09,28,14,55,7.10
2013,09,28,14,56,8.60
2013,09,28,14,57,7.10
2013,09,28,14,58,7.50
2013,09,28,14,59,5.80
2013,09,28,15,00,4.70
2013,09,28,15,01,6.00
2013,09,28,15,02,5.20
2013,09,28,15,03,6.50
2013,09,28,15,04,6.60
2013,09,28,15,05,6.40
2013,09,28,15,06,4.70
2013,09,28,15,07,4.70
2013,09,28,15,08,6.60
2013,09,28,15,09,9.40
2013,09,28,15,10,9.30
2013,09,28,15,11,6.60
2013,09,28,15,12,7.40
2013,09,28,15,13,4.20
2013,09,28,15,14,8.10
2013,09,28,15,15,8.40
2013,09,28,15,16,5.60
2013,09,28,15,17,8.10
2013,09,28,15,18,7.90
2013,09,28,15,19,12.10
2013,09,28,15,20,9.00
2013,09,28,15,21,9.70
2013,09,28,15,22,11.30
2013,09,28,15,23,9.40
2013,09,28,15,24,9.20
2013,09,28,15,25,10.40
2013,09,28,15,26,9.80
2013,09,28,15,27,11.80
2013,09,28,15,28,9.60
2013,09,28,15,29,7.00
2013,09,28,15,30,9.70
2013,09,28,15,31,10.70
2013,09,28,15,32,9.70
2013,09,28,15,33,8.40
2013,09,28,15,34,6.50
2013,09,28,15,35,7.90
2013,09,28,15,36,5.30
2013,09,28,15,37,3.60
2013,09,28,15,38,3.60
2013,09,28,15,39,3.60
2013,09,28,15,40,5.80
2013,09,28,15,41,2.40
2013,09,28,15,42,4.70
2013,09,28,15,43,4.20
2013,09,28,15,44,4.50
2013,09,28,15,45,1.90
2013,09,28,15,46,2.70
2013,09,28,15,47,2.80
2013,09,28,15,48,4.00
2013,09,28,15,49,4.80
2013,09,28,15,50,4.10
2013,09,28,15,51,3.60
2013,09,28,15,52,3.60
2013,09,28,15,53,3.20
2013,09,28,15,54,4.60
2013,09,28,15,55,2.80
2013,09,28,15,56,3.60
2013,09,28,15,57,4.20
2013,09,28,15,58,3.50
2013,09,28,15,59,4.20
2013,09,28,16,00,2.70
2013,09,28,16,01,2.90
2013,09,28,16,02,3.40
2013,09,28,16,03,3.50
2013,09,28,16,04,4.80
2013,09,28,16,05,4.30
2013,09,28,16,06,4.90
2013,09,28,16,07,4.30
2013,09,28,16,08,5.20
2013,09,28,16,09,6.00
2013,09,28,16,10,8.60
2013,09,28,16,11,11.80
2013,09,28,16,12,12.90
2013,09,28,16,13,10.40
2013,09,28,16,14,11.30
2013,09,28,16,15,9.50
2013,09,28,16,16,8.60
2013,09,28,16,17,9.40
2013,09,28,16,18,8.30
2013,09,28,16,19,9.20
2013,09,28,16,20,16.30
2013,09,28,16,21,9.00
2013,09,28,16,22,12.30
2013,09,28,16,23,13.00
2013,09,28,16,24,7.80
2013,09,28,16,25,7.20
2013,09,28,16,26,8.50
2013,09,28,16,27,11.50
2013,09,28,16,28,11.40
2013,09,28,16,29,11.00
2013,09,28,16,30,7.70
2013,09,28,16,31,6.10
2013,09,28,16,32,8.80
2013,09,28,16,33,12.70
2013,09,28,16,34,8.70
2013,09,28,16,35,7.80
2013,09,28,16,36,7.10
2013,09,28,16,37,6.30
2013,09,28,16,38,8.30
2013,09,28,16,39,5.10
2013,09,28,16,40,7.10
2013,09,28,16,41,8.20
2013,09,28,16,42,8.20
2013,09,28,16,43,9.00
2013,09,28,16,44,9.70
2013,09,28,16,45,7.00
2013,09,28,16,46,10.50
2013,09,28,16,47,7.20
2013,09,28,16,48,9.30
2013,09,28,16,49,12.50
2013,09,28,16,50,10.40
2013,09,28,16,51,7.40
2013,09,28,16,52,7.20
2013,09,28,16,53,7.00
2013,09,28,16,54,8.00
2013,09,28,16,55,10.10
2013,09,28,16,56,9.80
2013,09,28,16,57,9.30
2013,09,28,16,58,8.20
2013,09,28,16,59,10.60
2013,09,28,17,00,8.80
2013,09,28,17,01,7.70
2013,09,28,17,02,7.80
2013,09,28,17,03,8.70
2013,09,28,17,04,10.20
2013,09,28,17,05,10.10
2013,09,28,17,06,5.30
2013,09,28,17,07,6.50
2013,09,28,17,08,5.60
2013,09,28,17,09,7.10
2013,09,28,17,10,5.90
2013,09,28,17,11,6.70
2013,09,28,17,12,9.80
2013,09,28,17,13,6.00
2013,09,28,17,14,6.60
2013,09,28,17,15,5.90
2013,09,28,17,16,6.90
2013,09,28,17,17,8.10
2013,09,28,17,18,8.10
2013,09,28,17,19,7.00
2013,09,28,17,20,5.70
2013,09,28,17,21,5.00
2013,09,28,17,22,7.50
2013,09,28,17,23,7.40
2013,09,28,17,24,6.90
2013,09,28,17,25,5.60
2013,09,28,17,26,7.30
2013,09,28,17,27,7.50
2013,09,28,17,28,9.20
2013,09,28,17,29,7.70
2013,09,28,17,30,5.80
2013,09,28,17,31,9.70
2013,09,28,17,32,7.50
2013,09,28,17,33,6.40
2013,09,28,17,34,5.80
2013,09,28,17,35,8.10
2013,09,28,17,36,7.50
2013,09,28,17,37,6.60
2013,09,28,17,38,7.30
2013,09,28,17,39,5.40
2013,09,28,17,40,7.50
2013,09,28,17,41,7.10
2013,09,28,17,42,8.10
2013,09,28,17,43,6.30
2013,09,28,17,44,6.10
2013,09,28,17,45,7.20
2013,09,28,17,46,5.20
2013,09,28,17,47,4.70
2013,09,28,17,48,4.70
2013,09,28,17,49,6.10
2013,09,28,17,50,5.30
2013,09,28,17,51,4.30
2013,09,28,17,52,6.20
2013,09,28,17,53,6.00
2013,09,28,17,54,5.00
2013,09,28,17,55,5.60
2013,09,28,17,56,5.90
2013,09,28,17,57,5.70
2013,09,28,17,58,5.30